Flag for Switzerland Weather past 2 weeks in Bellinzona, Ticino, Switzerland

Now
67 °F

Mild.


Feels Like: 67 °F
Forecast: 54 / 73 °F
Wind: 3 mph from Southwest

Location: Locarno-Magadino

Current Time: Sep 17, 2014 at 7:11:23 PM

Latest Report: Sep 17, 2014 at 6:00 PM


Visibility: N/A

Pressure: 29.99 "Hg

Humidity: 84%

Dew point: 62 °F

Location of BellinzonaLocation

Historic Weather in Bellinzona — Graph

°F

Bellinzona temperature yesterday

Maximum temperature yesterday: 72 °F (at 4:00 PM)
Minimum temperature yesterday: 60 °F (at 7:00 AM)
Average temperature yesterday: 65 °F

Past Weeks' High & Low Weather Summary

 TemperatureHumidityPressure
High80 °F (Sep 8, 2:00 PM)100% (Sep 6, 3:00 AM)30.06 "Hg (Sep 6, 3:00 AM)
Low48 °F (Sep 13, 7:00 AM)25% (Sep 2, 6:00 PM)29.75 "Hg (Sep 11, 5:00 PM)
Average65 °F79%29.95 "Hg
* Reported Sep 2 5:00 PM — Sep 17 5:00 PM, Bellinzona, Weather by CustomWeather, © 2014

Note: Actual official high and low records may vary slightly from our data, if they occured in-between our weather recording intervals... More about our weather records

Advertising

Bellinzona weather history for previous 24 hours

 ConditionsComfort  
Time TempWeatherWind HumidityBarometerVisibility
5:00 PM
Sep 17
68 °FMild.1 mph75%29.99 "HgN/A
4:00 PM69 °FMild.3 mph72%29.99 "HgN/A
3:00 PM68 °FMild.5 mph80%30.00 "HgN/A
2:00 PM67 °FMild.5 mph82%30.02 "HgN/A
1:00 PM65 °FMild.3 mph89%30.03 "HgN/A
12:00 PM65 °FMild.2 mph89%30.04 "HgN/A
11:00 AM65 °FMild.5 mph90%30.03 "HgN/A
10:00 AM63 °FMild.1 mph93%30.03 "HgN/A
9:00 AM62 °FCool.1 mph97%30.03 "HgN/A
8:00 AM61 °FCool.1 mph98%30.03 "HgN/A
7:00 AM61 °FCool.2 mph100%30.02 "HgN/A
6:00 AM61 °FCool.1 mph99%30.03 "HgN/A
5:00 AM62 °FCool.1 mph98%30.03 "HgN/A
4:00 AM61 °FCool.1 mph100%30.03 "HgN/A
3:00 AM62 °FCool.No wind98%30.03 "HgN/A
2:00 AM61 °FCool.1 mph98%30.03 "HgN/A
1:00 AM61 °FCool.2 mph98%30.03 "HgN/A
12:00 AM60 °FCool.2 mph97%30.03 "HgN/A
11:00 PM
Sep 16
62 °FCool.2 mph93%30.03 "HgN/A
10:00 PM61 °FCool.1 mph97%30.02 "HgN/A
9:00 PM62 °FCool.1 mph95%30.01 "HgN/A
8:00 PM66 °FMild.3 mph79%29.97 "HgN/A
7:00 PM68 °FMild.3 mph78%29.96 "HgN/A
Weather by CustomWeather, © 2014

See weather overviewHow to use our weather pages